ECHOSTAR 21

Last updated on Nov. 19, 2019, 4:25 a.m. UTC

1 42749U 17032A   19322.27166480  .00000064  00000-0  00000+0 0  9999
2 42749   5.9246 313.8248 0002626 289.5266 281.7736  1.00272102  9027
UTC
Height (km)
Latitude
Longitude
Inclination
Orbital Period
UTC large
Height (km)
Speed (km/s)
/
Latitude / Longitude
Inclination (degrees)
Orbital Period (minutes)
Azimuth
Elevation
Range (km)
Doppler Factor
iOS Compass Heading
iOS Angle

Next 30 passes for location: Hong Kong

Rise time Rise Azimuth (degrees) Set time Set Azimuth (degrees) Duration Max altitude (degrees)

No matching passes for this satellites